QZS-3 (MICHIBIKI-3)

Last updated on Sat Apr 13 2024 01:02:39 GMT+0100 (British Summer Time)

1 42917U 17048A 24103.55813491 -.00000357 00000+0 00000+0 0 9993 2 42917 0.0531 199.2748 0001746 183.5807 146.3439 1.00273120 24286
UTC large
Height (km)
Speed (km/s)
/
Latitude / Longitude
Inclination (degrees)
Orbital Period (minutes)
Azimuth
Elevation
Range (km)
Doppler Factor

Next 0 passes for location: London (51.5072 / 0.1276)

Sorry there are no passes over London.